Location: Mentone
(34.5413°N, 85.5351°W)
Time: 04:35:48
(UTC-05:00)

Amateur Radio Satellites - All Passes

Search period start: 17 April 2014 04:05
Search period end: 18 April 2014 04:05
Location: Mentone, 34.5413°N, 85.5351°W

Satellite Date Start Highest point End Downlink Frequencies (MHz)
Time Altitude Azimuth
AO-27 17 Apr 04:19:27 04:22:03 14° 296° (WNW) 04:24:39 436.795 MHz FM
KITSAT 1 17 Apr 04:23:27 04:30:58 40° 306° (NW) 04:38:32 435.175 FM
ITAMSAT 1 17 Apr 04:32:07 04:33:22 11° 298° (WNW) 04:34:36 435.822 SSB
TMSAT-1 17 Apr 04:44:32 04:49:22 37° 289° (WNW) 04:54:11 436.925 FM
JAS-1B 17 Apr 04:49:22 04:55:03 87° 285° (WNW) 05:00:59 435.800 - 435.900 CW/SSB
AO-7 17 Apr 05:00:57 05:09:11 61° 104° (ESE) 05:17:22 29.400 - 29.500 MHz
UOSAT-12 17 Apr 05:04:26 05:06:04 12° 253° (WSW) 05:07:42 437.025 FM, 437.400 FM
Uosat F 17 Apr 05:19:30 05:24:14 44° 288° (WNW) 05:28:57 435.120 FM
STRAND 1 17 Apr 05:58:15 06:02:48 33° 70° (ENE) 06:07:20 ?
RS-15 17 Apr 06:17:08 06:27:41 45° 109° (ESE) 06:37:50 29.354 - 29.394 USB, Beacon 29.352 USB
AO-40 17 Apr 06:19:23 09:45:08 28° 131° (SE) 11:12:10 Beacon 2401.320
Hamsat 17 Apr 06:36:04 06:40:16 47° 99° (E) 06:44:28 145.90 MHz
AO-7 17 Apr 06:54:45 07:01:21 27° 300° (WNW) 07:07:59 29.400 - 29.500 MHz
MaSat-1 17 Apr 07:03:05 07:05:00 15° 63° (ENE) 07:07:06 437.345 MHz
JAS-2 17 Apr 07:35:10 07:40:29 57° 101° (ESE) 07:46:20 435.800 - 435.900 CW/SSB, 435.910 FM
STRAND 1 17 Apr 07:37:53 07:41:58 24° 264° (W) 07:46:04 ?
SO-67 17 Apr 08:09:59 08:13:26 60° 283° (WNW) 08:16:53 435.3500 MHz FM
Hamsat 17 Apr 08:13:50 08:15:49 13° 293° (WNW) 08:17:47 145.90 MHz
PANSAT 17 Apr 08:26:28 08:27:38 11° 158° (SSE) 08:28:48 not established
Oscar 10/S400 17 Apr 08:28:24 04:05:18 14° 78° (ENE) 11:44:50 145.825 - 145.975 CW/USB, Beacon 145.810 USB
HO-68 17 Apr 08:28:37 08:32:27 15° 92° (E) 08:36:16 435.675 MHz FM
RS-15 17 Apr 08:29:02 08:39:51 48° 308° (NW) 08:50:23 29.354 - 29.394 USB, Beacon 29.352 USB
MaSat-1 17 Apr 08:40:56 08:43:21 20° 250° (WSW) 08:46:04 437.345 MHz
JAS-2 17 Apr 09:22:03 09:25:13 16° 294° (WNW) 09:28:31 435.800 - 435.900 CW/SSB, 435.910 FM
Oscar 11 17 Apr 09:39:58 09:43:14 21° 95° (E) 09:46:30 145.825 FM, Beacon 2401.500 USB
Sapphire 17 Apr 09:43:12 09:47:35 25° 54° (NE) 09:51:57 437.095 MHz 1200 baud AX-25 AFSK
PANSAT 17 Apr 10:04:03 10:07:18 26° 169° (S) 10:10:33 not established
HO-68 17 Apr 10:13:34 10:20:46 81° 287° (WNW) 10:27:56 435.675 MHz FM
KITSAT 1 17 Apr 10:27:11 10:30:27 13° 36° (NE) 10:33:42 435.175 FM
PCSat 17 Apr 10:27:40 10:33:03 64° 62° (ENE) 10:38:24 145.825 MHz
RS-15 17 Apr 10:50:21 10:55:54 15° 337° (NNW) 11:01:25 29.354 - 29.394 USB, Beacon 29.352 USB
FUNcube-1 17 Apr 10:57:59 11:02:08 50° 100° (E) 11:06:20 145.950 - 145.970 MHz USB
Saudisat 1A 17 Apr 11:06:03 11:10:20 49° 115° (ESE) 11:14:39 436.775 MHz
Oscar 11 17 Apr 11:15:40 11:19:23 28° 289° (WNW) 11:23:05 145.825 FM, Beacon 2401.500 USB
Sapphire 17 Apr 11:26:05 11:31:07 40° 250° (WSW) 11:36:07 437.095 MHz 1200 baud AX-25 AFSK
PANSAT 17 Apr 11:43:39 11:47:09 33° 182° (S) 11:50:38 not established
HO-68 17 Apr 12:04:19 12:07:20 13° 304° (NW) 12:10:21 435.675 MHz FM
PCSat 17 Apr 12:13:12 12:15:51 14° 257° (WSW) 12:18:29 145.825 MHz
KITSAT 1 17 Apr 12:19:51 12:27:48 56° 58° (ENE) 12:35:40 435.175 FM
Oscar 19 17 Apr 12:36:21 12:40:08 21° 67° (ENE) 12:43:55 437.125 CW, 437.150 USB
FUNcube-1 17 Apr 12:36:37 12:38:07 12° 293° (WNW) 12:39:37 145.950 - 145.970 MHz USB
Oscar 16 17 Apr 12:43:39 12:47:54 27° 69° (ENE) 12:52:10 437.025 USB, Beacon 2401.1428
Saudisat 1A 17 Apr 12:47:21 12:50:12 16° 311° (NW) 12:53:03 436.775 MHz
AO-Echo 17 Apr 12:58:02 13:00:42 14° 65° (ENE) 13:03:21 ?
RS-15 17 Apr 13:11:16 13:15:29 13° 17° (NNE) 13:19:41 29.354 - 29.394 USB, Beacon 29.352 USB
Uribyol 2 17 Apr 13:14:34 13:18:55 28° 69° (ENE) 13:23:15 436.500 FM
PANSAT 17 Apr 13:23:58 13:26:57 21° 194° (SSW) 13:29:56 not established
Gurwin Techsat 1B 17 Apr 13:35:41 13:37:44 12° 63° (ENE) 13:39:47 435.225 FM
AO-27 17 Apr 13:52:37 13:57:46 66° 74° (ENE) 14:02:55 436.795 MHz FM
ITAMSAT 1 17 Apr 14:03:53 14:09:05 83° 76° (ENE) 14:14:17 435.822 SSB
AO-7 17 Apr 14:11:21 14:12:53 11° 50° (NE) 14:14:25 29.400 - 29.500 MHz
Oscar 19 17 Apr 14:14:24 14:19:10 39° 262° (W) 14:23:58 437.125 CW, 437.150 USB
KITSAT 1 17 Apr 14:16:08 14:22:40 28° 255° (WSW) 14:29:10 435.175 FM
Oscar 16 17 Apr 14:22:39 14:27:06 30° 263° (W) 14:31:36 437.025 USB, Beacon 2401.1428
TMSAT-1 17 Apr 14:22:47 14:27:04 26° 68° (ENE) 14:31:21 436.925 FM
AO-Echo 17 Apr 14:33:41 14:38:55 63° 259° (W) 14:44:05 ?
ISS 17 Apr 14:46:42 14:49:13 20° 129° (SE) 14:51:46 145.800 FM
Uosat F 17 Apr 14:52:26 14:55:39 17° 66° (ENE) 14:58:53 435.120 FM
Uribyol 2 17 Apr 14:53:49 14:58:16 29° 263° (W) 15:02:44 436.500 FM
SO-50 17 Apr 14:55:50 14:59:05 20° 110° (ESE) 15:02:20 436.795 FM
Gurwin Techsat 1B 17 Apr 15:11:43 15:17:01 74° 258° (WSW) 15:22:20 435.225 FM
RS-15 17 Apr 15:22:17 15:32:19 39° 48° (NE) 15:42:31 29.354 - 29.394 USB, Beacon 29.352 USB
JAS-1B 17 Apr 15:28:43 15:37:06 62° 73° (ENE) 15:44:08 435.800 - 435.900 CW/SSB
AO-27 17 Apr 15:35:47 15:37:40 12° 268° (W) 15:39:33 436.795 MHz FM
OPAL 17 Apr 15:37:21 15:42:35 83° 286° (WNW) 15:47:48 ?
AO-7 17 Apr 15:55:53 16:03:58 60° 68° (ENE) 16:12:03 29.400 - 29.500 MHz
TMSAT-1 17 Apr 16:02:03 16:06:47 33° 263° (W) 16:11:33 436.925 FM
ISS 17 Apr 16:22:47 16:25:49 31° 323° (NW) 16:28:52 145.800 FM
Uosat F 17 Apr 16:29:12 16:34:02 47° 260° (W) 16:38:53 435.120 FM
SO-50 17 Apr 16:35:17 16:39:23 34° 305° (NW) 16:43:30 436.795 FM
JAS-1B 17 Apr 17:21:18 17:27:44 23° 263° (W) 17:33:29 435.800 - 435.900 CW/SSB
Hamsat 17 Apr 17:26:58 17:30:10 22° 70° (ENE) 17:33:24 145.90 MHz
UOSAT-12 17 Apr 17:29:51 17:34:06 42° 114° (ESE) 17:38:26 437.025 FM, 437.400 FM
RS-15 17 Apr 17:34:23 17:44:59 57° 249° (WSW) 17:55:57 29.354 - 29.394 USB, Beacon 29.352 USB
JAS-2 17 Apr 17:46:35 17:49:56 16° 66° (ENE) 17:53:07 435.800 - 435.900 CW/SSB, 435.910 FM
AO-7 17 Apr 17:50:35 17:57:05 26° 264° (W) 18:03:39 29.400 - 29.500 MHz
STRAND 1 17 Apr 18:13:45 18:16:29 15° 93° (E) 18:19:13 ?
SO-67 17 Apr 18:40:49 18:43:38 23° 73° (ENE) 18:46:28 435.3500 MHz FM
Hamsat 17 Apr 19:02:35 19:06:01 25° 264° (W) 19:09:29 145.90 MHz
UOSAT-12 17 Apr 19:11:07 19:14:25 19° 310° (NW) 19:17:47 437.025 FM, 437.400 FM
JAS-2 17 Apr 19:28:33 19:34:38 61° 258° (WSW) 19:40:06 435.800 - 435.900 CW/SSB, 435.910 FM
Saudisat 1A 17 Apr 19:37:16 19:40:03 16° 49° (NE) 19:42:49 436.775 MHz
STRAND 1 17 Apr 19:51:00 19:55:56 53° 287° (WNW) 20:00:52 ?
SO-67 17 Apr 20:14:44 20:16:46 15° 266° (W) 20:18:48 435.3500 MHz FM
Oscar 11 17 Apr 20:33:59 20:35:11 11° 66° (ENE) 20:36:24 145.825 FM, Beacon 2401.500 USB
HO-68 17 Apr 20:37:58 20:44:51 54° 70° (ENE) 20:51:45 435.675 MHz FM
MaSat-1 17 Apr 21:03:28 21:05:42 18° 110° (ESE) 21:07:44 437.345 MHz
Saudisat 1A 17 Apr 21:15:40 21:19:54 47° 245° (WSW) 21:24:04 436.775 MHz
FUNcube-1 17 Apr 21:51:52 21:55:23 26° 71° (ENE) 21:58:52 145.950 - 145.970 MHz USB
Oscar 11 17 Apr 22:06:39 22:10:52 55° 260° (W) 22:15:06 145.825 FM, Beacon 2401.500 USB
HO-68 17 Apr 22:27:16 22:32:47 24° 265° (W) 22:38:22 435.675 MHz FM
MaSat-1 17 Apr 22:42:42 22:44:02 12° 297° (WNW) 22:45:18 437.345 MHz
ISS 17 Apr 22:54:07 22:57:26 57° 41° (NE) 23:00:44 145.800 FM
PCSat 17 Apr 23:25:58 23:28:19 13° 103° (ESE) 23:30:41 145.825 MHz
FUNcube-1 17 Apr 23:28:35 23:31:45 20° 264° (W) 23:34:54 145.950 - 145.970 MHz USB
Sapphire 18 Apr 00:20:59 00:26:04 43° 110° (ESE) 00:31:11 437.095 MHz 1200 baud AX-25 AFSK
ISS 18 Apr 00:33:01 00:33:47 11° 234° (SW) 00:34:33 145.800 FM
Oscar 16 18 Apr 01:00:33 01:02:36 12° 92° (E) 01:04:38 437.025 USB, Beacon 2401.1428
PCSat 18 Apr 01:05:43 01:11:05 67° 297° (WNW) 01:16:29 145.825 MHz
SO-50 18 Apr 01:09:38 01:14:19 78° 60° (ENE) 01:19:02 436.795 FM
OPAL 18 Apr 01:13:39 01:15:43 13° 61° (ENE) 01:17:48 ?
Uribyol 2 18 Apr 01:32:24 01:34:37 13° 92° (E) 01:36:50 436.500 FM
UOSAT-12 18 Apr 02:03:37 02:06:38 17° 48° (NE) 02:09:39 437.025 FM, 437.400 FM
Sapphire 18 Apr 02:05:24 02:09:39 23° 306° (NW) 02:13:55 437.095 MHz 1200 baud AX-25 AFSK
Oscar 10/S400 18 Apr 02:07:23 02:25:09 35° 137° (SE) 03:10:25 145.825 - 145.975 CW/USB, Beacon 145.810 USB
AO-27 18 Apr 02:09:42 02:14:16 31° 97° (E) 02:18:49 436.795 MHz FM
ITAMSAT 1 18 Apr 02:20:39 02:25:30 39° 99° (E) 02:30:19 435.822 SSB
Oscar 19 18 Apr 02:29:08 02:34:22 83° 284° (WNW) 02:39:33 437.125 CW, 437.150 USB
Oscar 16 18 Apr 02:37:10 02:42:19 64° 286° (WNW) 02:47:27 437.025 USB, Beacon 2401.1428
TMSAT-1 18 Apr 02:43:33 02:45:52 13° 92° (E) 02:48:10 436.925 FM
KITSAT 1 18 Apr 02:43:35 02:51:32 63° 112° (ESE) 02:59:32 435.175 FM
AO-Echo 18 Apr 02:44:57 02:49:38 55° 100° (E) 02:54:13 ?
OPAL 18 Apr 02:49:00 02:53:58 69° 256° (WSW) 02:59:01 ?
Uribyol 2 18 Apr 03:09:20 03:14:26 62° 286° (WNW) 03:19:32 436.500 FM
JAS-1B 18 Apr 03:20:13 03:22:58 14° 93° (E) 03:25:46 435.800 - 435.900 CW/SSB
Gurwin Techsat 1B 18 Apr 03:31:37 03:36:52 61° 101° (E) 03:42:06 435.225 FM
UOSAT-12 18 Apr 03:42:31 03:47:07 54° 245° (WSW) 03:51:40 437.025 FM, 437.400 FM
AO-27 18 Apr 03:49:23 03:53:37 26° 292° (WNW) 03:57:52 436.795 MHz FM
